Satellite: ORSTED
Catalog number: 25635
Epoch time:      103026.95137693
Element set:     817 
Inclination:       96.4480 deg
RA of node:        18.6010 deg
Eccentricity:    0.0146648
Arg of perigee:    41.2292 deg
Mean anomaly:     319.9868 deg
Mean motion:   14.44793026 rev/day
Decay rate:    8.2699E-006 rev/day^2
Epoch rev:           20667
Checksum:              339

Satellite: SUNSAT
Catalog number: 25636
Epoch time:      103026.97241070
Element set:     692 
Inclination:       96.4516 deg
RA of node:        17.3214 deg
Eccentricity:    0.0150519
Arg of perigee:    47.3356 deg
Mean anomaly:     314.0408 deg
Mean motion:   14.42929938 rev/day
Decay rate:    3.7600E-006 rev/day^2
Epoch rev:           20655
Checksum:              296

Satellite: UOSAT 12
Catalog number: 25693
Epoch time:      103027.46786195
Element set:     649 
Inclination:       64.5593 deg
RA of node:        78.4304 deg
Eccentricity:    0.0018715
Arg of perigee:   317.7646 deg
Mean anomaly:      42.1993 deg
Mean motion:   14.76363163 rev/day
Decay rate:    5.1100E-006 rev/day^2
Epoch rev:           20299
Checksum:              330

Satellite: FENGYUN 1C
Catalog number: 25730
Epoch time:      103027.18586819
Element set:     752 
Inclination:       98.6355 deg
RA of node:        52.4261 deg
Eccentricity:    0.0015262
Arg of perigee:    67.8247 deg
Mean anomaly:     292.4543 deg
Mean motion:   14.11731235 rev/day
Decay rate:    7.9999E-008 rev/day^2
Epoch rev:           19147
Checksum:              334

Satellite: ASTRA 1H
Catalog number: 25785
Epoch time:      103023.00000000
Element set:     369 
Inclination:        0.0122 deg
RA of node:       319.8851 deg
Eccentricity:    0.0002995
Arg of perigee:    65.1991 deg
Mean anomaly:     116.0174 deg
Mean motion:    1.00273184 rev/day
Decay rate:    1.2299E-006 rev/day^2
Epoch rev:            1323
Checksum:              243

Satellite: TERRA
Catalog number: 25994
Epoch time:      103027.26993288
Element set:     641 
Inclination:       98.2027 deg
RA of node:       103.8337 deg
Eccentricity:    0.0001127
Arg of perigee:    61.7646 deg
Mean anomaly:     298.3642 deg
Mean motion:   14.57105060 rev/day
Decay rate:    4.1299E-006 rev/day^2
Epoch rev:           16542
Checksum:              314

Satellite: JAWSAT
Catalog number: 26061
Epoch time:      103026.89340920
Element set:     750 
Inclination:      100.2110 deg
RA of node:        79.7505 deg
Eccentricity:    0.0034922
Arg of perigee:   344.3733 deg
Mean anomaly:      15.6367 deg
Mean motion:   14.37798728 rev/day
Decay rate:    5.8400E-006 rev/day^2
Epoch rev:           15727
Checksum:              295

Satellite: OPAL
Catalog number: 26063
Epoch time:      103026.69331359
Element set:     707 
Inclination:      100.2159 deg
RA of node:        77.1192 deg
Eccentricity:    0.0037298
Arg of perigee:   351.6468 deg
Mean anomaly:       8.4081 deg
Mean motion:   14.35471770 rev/day
Decay rate:    1.6100E-006 rev/day^2
Epoch rev:           15710
Checksum:              284

Satellite: ASUSAT
Catalog number: 26065
Epoch time:      103027.20821954
Element set:     718 
Inclination:      100.2155 deg
RA of node:        77.8720 deg
Eccentricity:    0.0037258
Arg of perigee:   351.6370 deg
Mean anomaly:       8.4184 deg
Mean motion:   14.35498879 rev/day
Decay rate:    1.9700E-006 rev/day^2
Epoch rev:           15717
Checksum:              308

Satellite: GOES 11
Catalog number: 26352
Epoch time:      103025.39923521
Element set:     993 
Inclination:        0.0843 deg
RA of node:       109.5107 deg
Eccentricity:    0.0004488
Arg of perigee:   167.9898 deg
Mean anomaly:     237.7936 deg
Mean motion:    1.00262988 rev/day
Decay rate:   -3.6000E-007 rev/day^2
Epoch rev:             999
Checksum:              322

Satellite: EUTELSAT W4
Catalog number: 26369
Epoch time:      103024.79892362
Element set:     346 
Inclination:        0.0463 deg
RA of node:        39.2258 deg
Eccentricity:    0.0006348
Arg of perigee:   253.2207 deg
Mean anomaly:     154.9413 deg
Mean motion:    1.00274723 rev/day
Decay rate:    1.5800E-006 rev/day^2
Epoch rev:             980
Checksum:              282

Satellite: FENGYUN 2B
Catalog number: 26382
Epoch time:      103026.59904524
Element set:     776 
Inclination:        0.6261 deg
RA of node:       287.0296 deg
Eccentricity:    0.0000366
Arg of perigee:   146.0947 deg
Mean anomaly:      12.0605 deg
Mean motion:    1.00260076 rev/day
Decay rate:   -3.2499E-006 rev/day^2
Epoch rev:             948
Checksum:              288

Satellite: EUTELSAT W1
Catalog number: 26487
Epoch time:      103026.88523360
Element set:     348 
Inclination:        0.0153 deg
RA of node:       287.3566 deg
Eccentricity:    0.0003967
Arg of perigee:   302.4083 deg
Mean anomaly:     224.6414 deg
Mean motion:    1.00270824 rev/day
Decay rate:    6.7000E-007 rev/day^2
Epoch rev:             879
Checksum:              280

Satellite: ASTRA 2B
Catalog number: 26494
Epoch time:      103023.00000000
Element set:     252 
Inclination:        0.0178 deg
RA of node:       354.5658 deg
Eccentricity:    0.0005000
Arg of perigee:   302.8402 deg
Mean anomaly:     212.7100 deg
Mean motion:    1.00276704 rev/day
Decay rate:    1.5399E-006 rev/day^2
Epoch rev:             865
Checksum:              221

Satellite: NOAA 16
Catalog number: 26536
Epoch time:      103026.69216933
Element set:     182 
Inclination:       98.8990 deg
RA of node:       335.1486 deg
Eccentricity:    0.0010908
Arg of perigee:    14.6886 deg
Mean anomaly:     345.4592 deg
Mean motion:   14.11892190 rev/day
Decay rate:    5.4100E-006 rev/day^2
Epoch rev:           12092
Checksum:              320

Satellite: SAUDISAT 1A
Catalog number: 26545
Epoch time:      103026.62289305
Element set:     403 
Inclination:       64.5588 deg
RA of node:       102.4447 deg
Eccentricity:    0.0053623
Arg of perigee:   242.4069 deg
Mean anomaly:     117.1593 deg
Mean motion:   14.78919470 rev/day
Decay rate:    1.3580E-005 rev/day^2
Epoch rev:           12582
Checksum:              305

Satellite: UNISAT
Catalog number: 26547
Epoch time:      103026.62086116
Element set:     423 
Inclination:       64.5571 deg
RA of node:       104.7728 deg
Eccentricity:    0.0060769
Arg of perigee:   244.8277 deg
Mean anomaly:     114.6492 deg
Mean motion:   14.79645015 rev/day
Decay rate:    2.2910E-005 rev/day^2
Epoch rev:           12579
Checksum:              313

Satellite: TIUNGSAT 1
Catalog number: 26548
Epoch time:      103026.68074104
Element set:     409 
Inclination:       64.5571 deg
RA of node:        95.4095 deg
Eccentricity:    0.0046862
Arg of perigee:   241.5152 deg
Mean anomaly:     118.1211 deg
Mean motion:   14.81190398 rev/day
Decay rate:    1.5870E-005 rev/day^2
Epoch rev:           12598
Checksum:              304

Satellite: SAUDISAT 1B
Catalog number: 26549
Epoch time:      103027.31919024
Element set:     676 
Inclination:       64.5571 deg
RA of node:       104.3040 deg
Eccentricity:    0.0057814
Arg of perigee:   242.8310 deg
Mean anomaly:     116.6888 deg
Mean motion:   14.77861906 rev/day
Decay rate:    1.4010E-005 rev/day^2
Epoch rev:           12585
Checksum:              299

Satellite: AMSAT OSCAR 40
Catalog number: 26609
Epoch time:      103018.40123252
Element set:     305 
Inclination:        7.9708 deg
RA of node:        69.8773 deg
Eccentricity:    0.7935358
Arg of perigee:   134.4243 deg
Mean anomaly:     325.7472 deg
Mean motion:    1.25596623 rev/day
Decay rate:   -1.1000E-007 rev/day^2
Epoch rev:            1019
Checksum:              372

Satellite: GOES 12
Catalog number: 26871
Epoch time:      103027.44413944
Element set:     792 
Inclination:        0.3818 deg
RA of node:       276.9016 deg
Eccentricity:    0.0004300
Arg of perigee:   347.2883 deg
Mean anomaly:     280.2513 deg
Mean motion:    1.00364071 rev/day
Decay rate:   -1.2499E-006 rev/day^2
Epoch rev:             561
Checksum:              279

Satellite: PCSAT
Catalog number: 26931
Epoch time:      103027.55007346
Element set:     387 
Inclination:       67.0482 deg
RA of node:       312.2991 deg
Eccentricity:    0.0005217
Arg of perigee:   261.7066 deg
Mean anomaly:      98.3444 deg
Mean motion:   14.29103831 rev/day
Decay rate:    2.3200E-006 rev/day^2
Epoch rev:            6920
Checksum:              283

Satellite: SAPPHIRE
Catalog number: 26932
Epoch time:      103026.97108810
Element set:     385 
Inclination:       67.0573 deg
RA of node:       313.4989 deg
Eccentricity:    0.0005767
Arg of perigee:   240.9590 deg
Mean anomaly:     119.0933 deg
Mean motion:   14.29285887 rev/day
Decay rate:    1.4800E-006 rev/day^2
Epoch rev:            6914
Checksum:              330

Satellite: ENVISAT
Catalog number: 27386
Epoch time:      103027.46924043
Element set:     884 
Inclination:       98.5458 deg
RA of node:        96.3384 deg
Eccentricity:    0.0000941
Arg of perigee:    96.4611 deg
Mean anomaly:     263.6680 deg
Mean motion:   14.32248805 rev/day
Decay rate:    1.6699E-006 rev/day^2
Epoch rev:            4758
Checksum:              342

Satellite: IDEFIX/ARIANE 
Catalog number: 27422
Epoch time:      103026.96991476
Element set:     222 
Inclination:       98.6986 deg
RA of node:       106.2724 deg
Eccentricity:    0.0012089
Arg of perigee:   212.9077 deg
Mean anomaly:     147.1352 deg
Mean motion:   14.27957596 rev/day
Decay rate:    2.5300E-006 rev/day^2
Epoch rev:            3823
Checksum:              325

